Point Salines Arpt, Grenada

7:19 AM AST on December 10, 2016 (GMT -0400)
Point Salines International

Weather History for TGPY - November, 2013

Change the Weather History Date:

Friday, November 29, 2013

  Actual Average Record
Temperature  
Mean Temperature 80 °F -  
Max Temperature 86 °F 83 °F 88 °F (2012)
Min Temperature 73 °F 74 °F 73 °F (1997)
Cooling Degree Days 14    
Growing Degree Days 30 (Base 50)    
Moisture  
Dew Point 72 °F    
Average Humidity 76    
Maximum Humidity 94    
Minimum Humidity 52    
Precipitation  
Precipitation 0.01 in - - ()
Sea Level Pressure  
Sea Level Pressure 29.87 in    
Wind  
Wind Speed 7 mph ()    
Max Wind Speed 21 mph    
Max Gust Speed -    
Visibility 7.8 miles    
Events Rain    
Averages and records for this station are not official NWS values.
T = Trace of Precipitation, MM = Missing Value Source: Averaged Metar Reports

Daily Weather History Graph

Daily Weather History Graph

Search for Another Location

Airport or City:

Trip Planner

Search our weather history database for the weather conditions in past years. The results will help you decide how hot, cold, wet, or windy it might be!

Date:

Astronomy

Nov. 29, 2013 Rise Set
Actual Time 6:11 AM AST 5:40 PM AST
Civil Twilight 5:48 AM AST 6:02 PM AST
Nautical Twilight 5:22 AM AST 6:28 PM AST
Astronomical Twilight 4:56 AM AST 6:54 PM AST
Moon 2:45 AM AST (11/29) 2:52 PM AST (11/29)
Length of Visible Light 12h 14m
Length of Day
11h 28m
Waning Crescent, 14% of the Moon is Illuminated
Nov 29
Waning Crescent
Dec 2
New
Dec 9
First Quarter
Dec 17
Full
Dec 25
Last Quarter

Hourly Weather History & Observations

Time (AST) Temp. Heat Index Dew Point Humidity Pressure Visibility Wind Dir Wind Speed Gust Speed Precip Events Conditions
12:00 AM 75.2 °F - 73.4 °F 94% 29.89 in 6.2 mi East 6.9 mph - N/A   Partly Cloudy
1:00 AM 75.2 °F - 73.4 °F 94% 29.86 in 6.2 mi Calm Calm - N/A   Scattered Clouds
2:00 AM 76 °F - 71 °F 80% 29.85 in 15 mi Calm Calm - -   Partly Cloudy
2:00 AM 77.0 °F - 71.6 °F 83% 29.83 in 6.2 mi Calm Calm - N/A   Scattered Clouds
3:00 AM 75.2 °F - 71.6 °F 89% 29.83 in 6.2 mi East 5.8 mph - N/A   Partly Cloudy
4:00 AM 75.2 °F - 71.6 °F 89% 29.83 in 6.2 mi East 5.8 mph - N/A   Partly Cloudy
5:00 AM 74 °F - 72 °F 91% 29.85 in 11 mi Calm Calm - - Rain Light Rain Showers
5:00 AM 75.2 °F - 71.6 °F 89% 29.83 in 6.2 mi Calm Calm - N/A Rain Light Rain Showers
6:00 AM 73.4 °F - 71.6 °F 94% 29.86 in 6.2 mi East 6.9 mph - N/A Rain Light Rain Showers
7:00 AM 77.0 °F - 73.4 °F 89% 29.89 in 6.2 mi East 6.9 mph - N/A   Partly Cloudy
8:00 AM 82 °F - 75 °F 74% 29.91 in 11 mi East 6.9 mph - - Rain Light Rain Showers
8:00 AM 82.4 °F 89.5 °F 75.2 °F 79% 29.89 in 6.2 mi East 6.9 mph - N/A Rain Light Rain Showers
9:00 AM 84.2 °F 90.9 °F 73.4 °F 70% 29.92 in 6.2 mi ESE 17.3 mph - N/A   Scattered Clouds
10:00 AM 86.0 °F 91.8 °F 71.6 °F 62% 29.92 in 6.2 mi ESE 20.7 mph - N/A   Partly Cloudy
11:00 AM 86 °F - 71 °F 52% 29.92 in 14 mi ESE 17.3 mph - -   Widespread Dust
11:00 AM 86.0 °F 91.8 °F 71.6 °F 62% 29.92 in 6.2 mi ESE 17.3 mph - N/A   Partly Cloudy
12:00 PM 86.0 °F 91.8 °F 71.6 °F 62% 29.89 in 6.2 mi East 17.3 mph - N/A   Partly Cloudy
1:00 PM 86.0 °F 93.4 °F 73.4 °F 66% 29.86 in 6.2 mi SE 17.3 mph - N/A   Partly Cloudy
2:00 PM 85 °F - 72 °F 57% 29.85 in 15 mi SE 13.8 mph - -   Widespread Dust
2:00 PM 86.0 °F 93.4 °F 73.4 °F 66% 29.83 in 6.2 mi SE 13.8 mph - N/A   Partly Cloudy
3:00 PM 86.0 °F 93.4 °F 73.4 °F 66% 29.83 in 6.2 mi ESE 17.3 mph - N/A   Partly Cloudy
4:00 PM 84.2 °F 89.6 °F 71.6 °F 66% 29.83 in 6.2 mi East 15.0 mph - N/A   Partly Cloudy
5:00 PM 83 °F - 73 °F 64% 29.84 in 14 mi ESE 13.8 mph - -   Widespread Dust
5:00 PM 82.4 °F 89.5 °F 75.2 °F 79% 29.83 in 6.2 mi ESE 13.8 mph - N/A   Partly Cloudy
6:00 PM 80.6 °F 84.6 °F 71.6 °F 74% 29.86 in 6.2 mi ENE 6.9 mph - N/A   Partly Cloudy
7:00 PM 78.8 °F - 71.6 °F 78% 29.86 in 6.2 mi East 8.1 mph - N/A   Partly Cloudy
8:00 PM 78 °F - 72 °F 76% 29.89 in 10 mi East 6.9 mph - -   Widespread Dust
8:00 PM 78.8 °F - 71.6 °F 78% 29.89 in 6.2 mi East 6.9 mph - N/A   Partly Cloudy
9:00 PM 78.8 °F - 71.6 °F 78% 29.89 in 6.2 mi ENE 6.9 mph - N/A   Partly Cloudy
10:00 PM 78.8 °F - 71.6 °F 78% 29.89 in 6.2 mi ENE 8.1 mph - N/A   Partly Cloudy
11:00 PM 77 °F - 72 °F 79% 29.88 in 12 mi East 5.8 mph - -   Widespread Dust
11:00 PM 77.0 °F - 71.6 °F 83% 29.89 in 6.2 mi East 5.8 mph - N/A   Partly Cloudy